Back to catalog

DEB KOSMOS-2566

AliveLEO
NORAD 54817·DEBRIS·🇷🇺 Russia
This satellite name has not been confirmed by official sources yet.

Launched Nov 30, 2022 from Plesetsk Cosmodrome

Loading…

Next Passes (next 24 hours)

TLE

StaleSource: Space-Track

Epoch: Jun 17, 2026, 14:19 UTC

1 54817U 22163D   26168.59719526 -.00000064  00000-0  79126-5 0  9997
2 54817  67.1394 102.5189 0002956  88.3599 271.7825 13.97477984177542

Track DEB KOSMOS-2566 in real time with AllMySat

Download on the App Store